This is the latest recevied weather packets stored in our database for station/object DL1NUX-15. If no packets are shown the sender has not sent any weather packets the latest 1 day(s).
| Time | Temp. | Humidity | Pressure | Rain* | Wind** | Luminosity | Snow |
|---|---|---|---|---|---|---|---|
| 1777970137 | 17.78° C | 81% | 1010.4 hPa | 0 mm | 0.45 m/s, 282° | 265 W/m² | - |
| 1777969537 | 16.67° C | 84% | 1010.5 hPa | 0 mm | 0 m/s | 252 W/m² | - |
| 1777968938 | 16.11° C | 86% | 1010.5 hPa | 0 mm | 0 m/s | 175 W/m² | - |
| 1777965924 | 15.56° C | 87% | 1010.7 hPa | 0 mm | 0.45 m/s, 287° | 153 W/m² | - |
| 1777963526 | 15° C | 89% | 1010.6 hPa | 0 mm | 0 m/s | 125 W/m² | - |
| 1777958129 | 12.78° C | 96% | 1010.5 hPa | 0 mm | 0.45 m/s, 275° | 39 W/m² | - |
| 1777955731 | 12.78° C | 96% | 1010.4 hPa | 0 mm | 0 m/s | 10 W/m² | - |
| 1777953333 | 12.78° C | 92% | 1010.7 hPa | 0.25 mm | 0 m/s | 0 W/m² | - |
| 1777952134 | 12.78° C | 91% | 1010.8 hPa | 0.51 mm | 0 m/s | 0 W/m² | - |
| 1777950935 | 12.78° C | 91% | 1011.2 hPa | 0.25 mm | 0.45 m/s, 22° | 0 W/m² | - |
| 1777949136 | 12.22° C | 96% | 1011.6 hPa | 0.76 mm | 0.45 m/s, 355° | 0 W/m² | - |
| 1777947936 | 12.78° C | 95% | 1012.1 hPa | 0.51 mm | 0 m/s | 0 W/m² | - |
| 1777946737 | 13.33° C | 92% | 1012.3 hPa | 0.51 mm | 0.45 m/s, 248° | 0 W/m² | - |
| 1777946138 | 13.33° C | 89% | 1012.4 hPa | 0 mm | 0.45 m/s, 233° | 0 W/m² | - |
| 1777944339 | 13.33° C | 88% | 1012.3 hPa | 0 mm | 0 m/s | 0 W/m² | - |
| 1777943140 | 13.89° C | 82% | 1012.4 hPa | 0 mm | 0 m/s | 0 W/m² | - |
| 1777938943 | 15° C | 75% | 1012.4 hPa | 0 mm | 0 m/s | 0 W/m² | - |
| 1777936544 | 15° C | 75% | 1012.8 hPa | 0 mm | 0 m/s | 0 W/m² | - |
| 1777935945 | 15° C | 75% | 1013 hPa | 0 mm | 0 m/s | 0 W/m² | - |
| 1777935346 | 15° C | 75% | 1013 hPa | 0 mm | 0 m/s | 0 W/m² | - |
| 1777932347 | 15.56° C | 74% | 1013.2 hPa | 0 mm | 0 m/s | 0 W/m² | - |
| 1777928150 | 16.67° C | 70% | 1013.4 hPa | 0 mm | 0 m/s | 0 W/m² | - |
| 1777927551 | 16.67° C | 69% | 1013.4 hPa | 0 mm | 0 m/s | 0 W/m² | - |
| 1777926951 | 16.67° C | 69% | 1013.4 hPa | 0 mm | 0 m/s | 0 W/m² | - |
| 1777924553 | 17.22° C | 66% | 1013.4 hPa | 0 mm | 0.45 m/s, 279° | 0 W/m² | - |
* Rain latest hour (hover to see other rain measurements)
** Current wind speed in m/s (hover to see current wind gust speed)